This is the latest recevied weather packets stored in our database for station/object KC5TIL-3. If no packets are shown the sender has not sent any weather packets the latest 10 day(s).
| Time | Temp. | Humidity | Pressure | Rain* | Wind** | Luminosity | Snow |
|---|---|---|---|---|---|---|---|
| 1787418041 | 38.33° C | 12% | 1014.8 hPa | 0 mm | 0 m/s | - | - |
| 1787417739 | 37.78° C | 12% | 1014.8 hPa | 0 mm | 1.34 m/s, 244° | - | - |
| 1787417441 | 38.33° C | 12% | 1014.8 hPa | 0 mm | 1.34 m/s, 162° | - | - |
| 1787417143 | 37.78° C | 12% | 1014.8 hPa | 0 mm | 1.34 m/s, 263° | - | - |
| 1787416842 | 37.78° C | 12% | 1014.8 hPa | 0 mm | 0 m/s | - | - |
| 1787416544 | 37.22° C | 15% | 1014.8 hPa | 0 mm | 0 m/s | - | - |
| 1787416241 | 36.67° C | 15% | 1014.8 hPa | 0 mm | 2.24 m/s, 208° | - | - |
| 1787415939 | 37.22° C | 15% | 1014.8 hPa | 0 mm | 1.34 m/s, 227° | - | - |
| 1787415641 | 37.78° C | 15% | 1014.8 hPa | 0 mm | 1.34 m/s, 296° | - | - |
| 1787415343 | 37.22° C | 15% | 1014.8 hPa | 0 mm | 1.34 m/s, 184° | - | - |
| 1787415042 | 36.67° C | 15% | 1014.8 hPa | 0 mm | 1.79 m/s, 199° | - | - |
| 1787414744 | 36.67° C | 15% | 1014.8 hPa | 0 mm | 0 m/s | - | - |
| 1787414445 | 36.11° C | 16% | 1014.8 hPa | 0 mm | 3.13 m/s, 209° | - | - |
| 1787414144 | 36.11° C | 15% | 1014.8 hPa | 0 mm | 0 m/s | - | - |
| 1787413846 | 36.11° C | 16% | 1014.8 hPa | 0 mm | 1.79 m/s, 173° | - | - |
| 1787413548 | 35.56° C | 16% | 1014.8 hPa | 0 mm | 1.34 m/s, 236° | - | - |
| 1787413246 | 35° C | 17% | 1014.8 hPa | 0 mm | 2.24 m/s, 239° | - | - |
| 1787412948 | 35° C | 17% | 1014.8 hPa | 0 mm | 1.79 m/s, 297° | - | - |
| 1787412650 | 35° C | 17% | 1014.8 hPa | 0 mm | 1.79 m/s, 282° | - | - |
| 1787412344 | 34.44° C | 17% | 1014.8 hPa | 0 mm | 2.24 m/s, 320° | - | - |
| 1787412045 | 34.44° C | 17% | 1014.8 hPa | 0 mm | 1.34 m/s, 278° | - | - |
| 1787411743 | 34.44° C | 18% | 1014.8 hPa | 0 mm | 2.24 m/s, 252° | - | - |
| 1787411441 | 33.89° C | 18% | 1014.8 hPa | 0 mm | 1.79 m/s, 134° | - | - |
| 1787411143 | 33.89° C | 18% | 1014.8 hPa | 0 mm | 2.24 m/s, 236° | - | - |
| 1787410845 | 33.33° C | 18% | 1014.8 hPa | 0 mm | 1.79 m/s, 76° | - | - |
* Rain latest hour (hover to see other rain measurements)
** Current wind speed in m/s (hover to see current wind gust speed)